Regional Weather Roundup
Issued by NWS Sioux Falls, SD

Home | Current Version | Previous Version | Graphics & Text | Print | Product List | Glossary On
Versions: 1 2 3 4 5 6 7 8 9 10 11 12 13 14 15 16 17 18 19 20 21 22 23 24 25 26 27 28 29 30 31 32 33 34 35 36 37 38 39 40 41 42 43 44 45 46 47 48 49 50
000
ASUS43 KFSD 281802
RWRFSD

WEATHER ROUNDUP FOR SE SOUTH DAKOTA/SW MINNESOTA/NW IOWA
NATIONAL WEATHER SERVICE SIOUX FALLS SD
100 PM CDT TUE JUL 28 2015

NOTE: "FAIR" INDICATES FEW OR NO CLOUDS BELOW 12,000 FEET WITH NO
SIGNIFICANT WEATHER AND OR OBSTRUCTIONS TO VISIBILITY.


SDZ038>040-050-052>070-281900-
SOUTHEAST SOUTH DAKOTA

CITY           SKY/WX    TMP DP  RH WIND       PRES   REMARKS
BROOKINGS      PTSUNNY   72  64  78 W15       29.88S
CHAMBERLAIN    NOT AVBL
HURON          SUNNY     74  57  55 W16G26    29.88F
6HR MIN TEMP:  68; 6HR MAX TEMP:  74;

MADISON        FAIR      73  66  78 W17G26    29.89S
MITCHELL       SUNNY     76  59  55 W13       29.90S
6HR MIN TEMP:  70; 6HR MAX TEMP:  76;

SIOUX FALLS    PTSUNNY   76  68  76 W14       29.87R
6HR MIN TEMP:  69; 6HR MAX TEMP:  80;

WINNER         FAIR      77  48  35 NW21      29.98R
YANKTON        MOSUNNY  N/A N/A N/A MISG        N/A
$$

MNZ071-072-080-081-089-090-097-098-281900-
SOUTHWEST MINNESOTA

CITY           SKY/WX    TMP DP  RH WIND       PRES   REMARKS
FAIRMONT       PTSUNNY   79  66  65 S10       29.85F
JACKSON        MOSUNNY   81  72  74 SW9       29.86F
LUVERNE        CLOUDY    77  68  73 W16       29.87S
MARSHALL       CLOUDY    81  66  61 W15G22    29.85R
6HR MIN TEMP:  68; 6HR MAX TEMP:  82;

MONTEVIDEO     CLOUDY    79  77  94 SW3       29.83S
PIPESTONE      PTSUNNY   75  66  73 W13       29.88R
REDWOOD FALLS  PTSUNNY   81  72  74 S13       29.81F
WINDOM         MOSUNNY   81  70  69 S15       29.85F
WORTHINGTON    CLOUDY    75  68  78 SW15G21   29.87S
$$

IAZ001>003-012>014-020>022-031-032-NEZ013-014-SDZ071-281900-
NORTHWEST IOWA

CITY           SKY/WX    TMP DP  RH WIND       PRES   REMARKS
DENISON        CLOUDY    75  72  88 SE13      29.85S FOG
ESTHERVILLE    MOSUNNY   79  71  76 S12       29.86S
SIOUX CITY     CLOUDY    77  70  79 VRB3      29.87F
6HR MIN TEMP:  69; 6HR MAX TEMP:  77; 6HR PCP: TRACE;

SPENCER        MOSUNNY   80  70  71 S10       29.86F
6HR MIN TEMP:  70; 6HR MAX TEMP:  80; 6HR PCP:  0.02;

$$

ABBREVIATIONS USED IN REMARKS
   TC - TEMPERATURE IN CELSIUS
  WCI - WIND CHILL INDEX
   HX - HEAT INDEX
  VSB - VISIBILITY




USA.gov is the U.S. government's official web portal to all federal, state and local government web resources and services.